EHI
3 3 3 3 3 2 1 0 0 0 0 0 0 0 0 0 0 0 0 0 0 0 0 0 0 0 0 0 0 1 1 1 0 0 0 0 0 0 0 0 0 0 0
2 2 2 3 2 1 0 0 0 0 0 0 0 0 0 0 0 0 0 0 0 0 0 0 0 0 0 0 0 0 0 0 0 0 0 0 0 0 0 0 0 0 0
1 1 1 1 1 1 0 0 0 0 0 0 0 0 0 0 0 0 0 0 0 0 0 0 0 0 0 0 0 0 0 0 0 0 0 0 0 0 0 0 0 0 0
1 1 1 0 0 0 0 0 0 0 0 0 0 0 0 0 0 0 0 0 0 0 0 0 0 0 0 0 0 0 0 0 0 0 0 0 0 0 0 0 0 0 0
2 2 2 1 0 0 0 0 0 0 0 0 0 0 0 0 0 0 0 0 0 0 0 0 0 0 0 0 0 0 0 0 0 0 0 0 0 0 0 0 0 0 0
2 3 2 1 0 0 0 0 0 0 0 0 0 0 0 0 0 0 0 0 0 0 0 0 0 0 0 0 0 0 0 0 0 0 0 0 0 0 0 0 0 0 0
1 1 2 1 0 0 0 0 0 0 0 0 0 0 0 0 0 0 0 0 0 0 0 0 0 0 0 0 0 0 0 0 0 0 0 0 0 0 0 0 0 0 0
0 0 1 1 0 0 0 0 0 0 0 0 0 0 0 0 0 0 0 0 0 0 0 0 0 0 0 0 0 0 0 0 0 0 0 0 0 0 0 0 0 0 0
0 0 0 0 0 0 0 0 0 0 0 0 0 0 0 0 0 0 0 0 0 0 0 0 0 0 0 0 0 0 0 0 0 0 0 0 0 0 0 0 0 0 0
0 0 0 0 0 0 0 0 0 0 0 0 0 0 0 0 0 0 0 0 0 0 0 0 0 0 0 0 0 0 0 0 0 0 0 0 0 0 0 0 0 0 0
0 0 0 0 0 0 0 0 0 0 0 0 0 0 0 0 0 0 0 0 0 0 0 0 0 0 0 0 0 0 0 0 0 0 0 0 0 0 0 0 0 0 0
0 0 0 0 0 0 0 0 0 0 0 0 0 0 0 0 0 0 0 0 0 0 0 0 0 0 0 0 0 0 0 0 0 0 0 0 0 0 0 0 0 0 0
0 0 0 0 0 0 1 1 1 0 0 0 0 0 0 0 0 0 0 0 0 0 0 0 0 0 0 0 0 0 0 0 0 0 0 0 0 0 0 0 0 0 0
0 0 0 0 0 0 1 2 2 1 0 0 0 0 0 0 0 0 0 0 0 0 0 0 0 0 0 0 0 0 0 0 0 0 0 0 0 0 0 0 0 0 0
0 0 0 0 0 0 0 1 1 1 0 0 0 0 0 0 0 0 0 0 0 0 0 0 0 0 0 0 0 0 0 0 0 0 0 0 0 0 0 0 0 0 0
0 0 0 0 0 0 0 0 0 0 0 0 0 0 0 0 0 0 0 0 0 0 0 0 0 0 0 0 0 0 0 0 0 0 0 0 0 0 0 0 0 0 0
0 0 0 0 0 0 0 0 0 0 0 0 0 0 0 0 0 0 0 0 0 0 0 0 0 0 0 0 0 0 0 0 0 0 0 0 0 0 0 0 0 0 0
0 0 0 0 0 0 0 0 0 0 0 0 0 0 0 0 0 0 0 0 0 0 0 0 0 0 0 0 0 0 0 0 0 0 0 0 0 0 0 0 0 0 0
0 0 0 0 0 0 0 0 0 0 0 0 0 0 0 0 0 0 0 0 0 0 0 0 0 0 0 0 0 0 0 0 0 0 0 0 0 0 0 0 0 0 0
0 0 0 0 0 0 0 0 0 0 0 0 0 0 0 0 0 0 0 0 0 0 0 0 0 0 0 0 0 0 0 0 0 0 0 0 0 0 0 0 0 0 0
0 0 0 0 0 0 0 0 0 0 0 0 0 0 0 0 0 0 0 0 0 0 0 0 0 0 0 0 0 0 0 0 0 0 0 0 0 0 0 0 0 0 0
0 0 0 0 0 0 0 0 0 0 0 0 0 0 0 0 0 0 0 0 0 0 0 0 0 0 0 0 0 0 0 0 0 0 0 0 0 0 0 0 0 0 0
0 0 0 0 0 0 0 0 0 0 0 0 0 0 0 0 0 0 0 0 0 0 0 0 0 0 0 0 0 0 0 0 0 0 0 0 0 0 0 0 0 0 0
0 0 0 0 0 0 0 0 0 0 0 0 0 0 0 0 0 0 0 0 0 0 0 0 0 0 0 0 0 0 0 0 0 0 0 0 0 0 0 0 0 0 0
0 0 0 0 0 0 0 0 0 0 0 0 0 0 0 0 0 0 0 0 0 0 0 0 0 0 0 0 0 0 0 0 0 0 0 0 0 0 0 0 0 0 0
0 0 0 0 0 0 0 0 0 0 0 0 0 0 0 0 0 0 0 0 0 0 0 0 0 0 0 0 0 0 0 0 0 0 0 0 0 0 0 0 0 0 0
Wind_Speed
1 1 1 1 1 1 1 1 2 2 2 2 2 2 2 2 2 2 2 6 5 5 5 5 5 6 5 6 7 7 7 7 7 7 7 6 6 6 6 6 6 6 6
1 1 1 1 1 1 1 1 2 2 2 2 2 2 2 2 2 2 1 3 6 5 5 4 4 5 5 5 6 7 7 7 7 6 6 6 5 5 5 5 5 4 5
1 1 1 1 1 1 1 1 2 2 2 2 2 2 1 1 1 2 1 1 2 5 5 4 4 3 4 4 5 6 6 6 6 6 5 4 4 4 4 4 4 4 4
1 2 1 1 1 1 1 1 1 2 2 2 1 1 1 1 1 1 1 1 1 1 3 5 4 3 3 4 4 5 5 5 5 5 5 4 4 4 4 4 3 3 4
1 2 1 1 1 1 1 2 2 2 2 2 1 1 1 1 1 1 1 1 1 1 1 3 4 4 2 3 4 4 4 4 4 4 5 4 3 4 4 3 3 3 3
1 1 1 1 2 2 1 2 2 2 2 2 2 1 1 0 0 1 0 0 0 0 0 0 0 1 2 2 3 3 3 3 4 4 4 3 3 4 3 3 2 2 2
1 1 1 1 1 2 2 2 3 3 2 2 2 1 1 0 0 0 0 0 1 0 0 0 0 0 0 2 1 1 1 2 3 3 3 3 3 3 3 2 2 2 2
2 2 2 2 2 2 2 2 2 3 2 2 2 2 2 1 1 1 1 1 1 1 1 0 1 1 1 1 1 1 1 1 2 2 2 3 2 3 2 1 2 2 1
2 2 3 2 2 2 2 2 2 3 3 2 2 2 3 2 1 1 1 1 1 1 1 1 1 1 1 1 1 0 1 0 1 1 2 2 2 2 2 1 1 1 1
2 3 3 3 3 2 2 3 3 2 3 3 2 1 2 0 2 2 2 1 2 2 2 1 1 2 2 1 0 1 1 1 1 1 2 2 2 2 2 1 1 0 1
3 3 3 3 3 2 3 3 3 3 3 3 3 2 2 1 2 2 2 2 2 2 2 2 2 2 2 2 2 0 1 2 2 2 2 2 3 3 3 2 2 2 2
3 3 3 3 3 3 3 3 3 4 4 4 3 3 3 3 3 2 3 3 3 2 2 2 2 2 2 2 1 0 1 2 2 3 3 3 2 2 3 3 3 3 3
3 4 4 4 3 3 4 4 4 4 5 5 4 3 3 3 2 2 2 2 2 2 2 2 2 2 2 2 2 1 2 2 2 3 3 3 3 3 2 2 3 3 3
4 4 5 5 5 4 4 4 4 4 4 5 5 5 3 3 3 3 2 2 2 2 3 3 2 3 2 2 2 3 3 3 3 4 4 3 3 2 3 3 3 4 4
4 5 5 5 5 5 5 5 4 5 5 5 5 5 4 3 3 3 3 3 3 4 4 3 2 3 2 2 2 3 3 3 4 4 4 3 3 3 3 3 4 5 5
6 6 6 6 6 6 6 6 5 5 5 5 4 5 5 4 3 3 4 4 4 4 4 3 2 2 2 2 3 3 3 4 5 5 5 4 4 4 4 4 4 4 5
7 7 7 7 7 7 6 6 6 6 7 6 6 6 6 5 4 4 4 4 4 4 5 4 2 2 3 3 3 3 3 4 4 5 5 5 5 6 5 5 5 5 5
7 7 7 7 7 7 7 7 7 7 8 8 8 7 7 5 6 5 4 5 5 5 5 5 4 3 4 4 4 4 3 3 3 4 5 6 6 6 6 6 5 5 5
6 6 7 7 7 7 7 7 8 8 8 8 8 8 8 7 7 6 6 5 4 4 4 5 5 3 3 3 4 3 4 3 3 4 6 7 6 7 7 7 7 6 6
6 6 6 7 7 7 7 7 8 8 8 8 8 8 8 8 8 7 6 6 5 5 5 5 4 4 3 3 3 3 3 3 3 3 4 4 5 7 7 8 8 7 7
5 5 5 6 6 6 6 7 7 8 8 8 8 8 8 9 10 8 6 6 6 5 5 5 5 4 4 3 4 3 4 3 3 3 3 3 4 4 5 7 8 8 8
4 4 5 5 6 6 8 9 8 7 7 8 8 8 8 8 10 11 11 11 9 8 7 6 6 6 6 5 4 4 4 4 4 3 3 4 4 5 4 5 7 9 10
4 4 5 5 6 7 8 9 10 7 7 7 8 7 6 6 8 7 9 10 11 11 11 8 8 8 8 6 6 6 6 6 5 3 3 5 4 5 4 5 9 10 10
4 4 5 5 6 6 7 7 8 7 6 7 7 8 8 7 7 8 7 7 8 8 9 9 8 8 7 7 7 7 6 5 4 3 4 5 4 5 4 5 8 9 9
4 4 4 5 5 5 6 7 7 5 5 6 7 7 8 8 9 10 8 7 7 7 8 10 10 10 10 10 7 4 5 5 5 4 4 4 3 3 4 5 5 7 8
4 4 4 4 5 5 5 6 6 4 4 5 5 6 9 9 9 10 8 7 8 7 6 6 7 8 8 8 9 8 7 6 5 4 4 4 3 2 3 3 3 3 5
Wind_Direction
147 147 133 126 128 120 137 123 121 114 113 105 93 84 75 72 71 72 78 53 52 70 84 97 101 103 111 112 113 113 108 105 110 110 106 103 100 97 97 98 95 93 90
148 143 156 142 133 143 161 147 127 124 121 111 99 84 73 68 69 65 65 68 54 56 66 83 107 112 111 115 116 114 110 108 105 111 112 107 103 102 100 103 102 101 100
167 165 170 160 152 163 156 134 126 121 121 113 94 74 66 51 61 61 51 45 58 52 51 57 75 104 117 120 117 115 110 105 103 100 103 111 116 110 105 110 111 107 105
182 180 173 160 165 172 162 146 140 132 134 126 110 76 59 52 56 65 64 60 51 45 57 52 49 61 99 120 121 116 114 111 108 107 102 97 110 119 111 103 106 109 109
187 184 176 160 157 160 159 156 164 158 147 132 111 80 54 47 47 63 74 60 30 11 30 50 38 29 56 109 114 124 127 126 120 117 111 103 104 109 114 112 114 119 115
170 165 164 162 156 147 148 165 170 158 155 145 123 90 36 34 63 61 43 135 322 320 333 356 26 27 45 91 109 120 132 143 141 136 122 114 113 114 114 117 124 130 121
157 146 141 151 164 160 159 170 172 162 154 153 150 135 95 74 107 9 273 220 215 233 212 245 272 260 344 60 79 130 143 159 154 151 137 132 131 124 126 129 120 120 133
164 164 157 167 169 162 157 161 165 177 169 181 194 182 183 195 166 304 240 220 235 230 222 255 274 246 253 233 54 48 107 164 168 171 159 149 149 160 154 153 156 126 108
184 183 179 172 179 177 180 182 184 180 183 188 205 209 193 201 187 208 243 232 238 242 236 246 261 254 246 251 235 92 41 301 222 212 182 167 165 165 166 166 149 168 165
197 198 193 181 182 190 189 192 191 195 190 189 199 245 273 219 197 192 207 220 243 248 245 247 256 246 233 231 219 6 342 290 239 227 208 196 193 200 199 201 220 250 252
208 206 200 193 190 199 203 201 200 197 199 200 199 203 208 219 231 210 220 219 229 244 254 252 256 251 240 228 214 206 297 277 242 229 232 227 231 229 219 226 241 253 271
215 214 210 207 200 205 214 213 211 209 207 209 208 206 206 203 203 208 222 225 238 244 250 255 251 245 246 237 217 332 273 269 255 247 243 244 252 257 243 248 254 257 264
226 221 216 215 211 211 215 217 214 217 214 212 215 221 227 230 224 225 213 230 245 256 241 238 240 244 240 232 208 227 224 256 266 259 253 252 265 275 280 290 294 286 275
229 225 221 217 216 215 215 215 215 219 217 217 220 223 232 234 225 220 214 214 235 246 238 238 225 223 225 227 229 219 210 230 254 261 257 255 264 281 287 289 293 295 288
232 225 221 221 220 218 219 216 218 218 217 220 222 222 226 231 232 228 220 213 223 239 244 240 226 209 224 230 225 226 226 226 242 252 257 251 251 264 270 274 280 283 279
229 225 221 221 222 220 219 219 221 222 217 221 222 225 229 229 229 229 222 221 231 235 247 245 251 231 219 235 236 239 235 233 229 235 244 242 245 252 258 261 268 278 276
230 228 223 222 222 222 221 221 224 225 221 222 223 225 228 229 228 231 230 225 225 223 240 254 266 256 239 234 233 235 232 230 222 221 232 239 245 248 250 252 258 267 278
231 231 226 222 221 221 222 223 226 228 223 222 222 224 227 225 228 229 232 226 225 223 230 246 252 249 249 237 235 233 233 236 233 227 234 242 243 243 245 245 250 258 265
232 230 227 223 221 221 223 225 227 229 226 226 226 226 227 225 228 227 227 227 228 229 228 235 247 249 254 239 232 232 235 235 238 234 234 238 242 245 247 246 249 252 252
232 231 230 229 226 224 224 225 228 228 228 230 230 231 230 228 229 229 225 229 228 224 223 228 237 240 242 241 233 228 237 236 244 246 239 245 245 246 245 247 248 248 247
240 236 234 234 231 227 224 224 228 229 228 230 231 232 233 233 235 231 227 226 224 222 221 223 229 237 236 227 230 232 241 253 256 241 243 243 242 244 240 239 241 241 244
248 244 239 238 238 234 228 229 233 233 231 230 233 235 235 234 233 232 233 233 231 224 223 224 229 232 237 238 239 233 235 245 252 222 241 257 247 248 249 245 243 245 245
250 249 249 244 245 243 236 232 232 237 237 235 234 235 236 231 231 231 234 237 237 238 238 234 235 235 236 232 231 234 236 241 251 235 232 252 244 252 253 250 249 249 246
252 253 252 252 250 248 243 240 235 237 239 235 234 232 233 232 229 231 234 236 237 236 238 237 240 242 242 239 231 235 240 250 266 249 233 249 246 253 257 252 249 246 245
257 256 256 252 249 251 246 244 242 238 238 241 237 234 232 233 232 231 232 235 241 246 249 247 248 250 250 242 234 225 221 226 246 242 228 240 246 264 265 259 249 244 248
257 258 259 256 252 254 251 248 245 240 240 244 241 235 234 237 236 232 229 229 238 242 240 242 248 250 247 238 229 221 218 224 237 240 210 216 230 237 256 250 256 253 249